Regional Weather Roundup
Issued by NWS

Home | Current Version | Previous Version | Graphics & Text | Print | Product List | Glossary Off
Versions: 1 2 3 4 5 6 7 8 9 10 11 12 13 14 15 16 17 18 19 20 21 22 23 24 25 26 27 28 29 30 31 32 33 34 35 36 37 38 39 40 41 42 43 44 45 46 47 48 49 50

000
ASUS43 KLSX 010359
RWRMO

WEATHER SUMMARY FOR MISSOURI
NATIONAL WEATHER SERVICE SPRINGFIELD MO
1100 PM CDT THU JUL 31 2014

NOTE: "FAIR" INDICATES FEW OR NO CLOUDS BELOW 12,000 FEET WITH NO
       SIGNIFICANT WEATHER AND/OR OBSTRUCTIONS TO VISIBILITY.
       CURRENT SKY AND/OR WEATHER CONDITIONS ARE NOT AVAILABLE FOR
       CHILLICOTHE AND FARMINGTON.

MOZ001>031-035>038-043-044-053-054-010500-
...NORTHERN AND WESTERN MISSOURI...

CITY           SKY/WX    TMP DP  RH WIND       PRES   REMARKS
KANSAS CTY INT PTCLDY    70  57  63 SE7       30.06R
KANSAS C DTWN  CLEAR     72  58  61 CALM      30.05R
LEE`S SUMMIT   CLEAR     71  59  65 SE5       30.07R
ST JOSEPH      PTCLDY    68  62  81 S3        30.05R
KIRKSVILLE     CLEAR     62  59  90 CALM      30.07S

$$
MOZ066>068-077>081-088>096-101>105-010500-
...SOUTHWEST MISSOURI...

CITY           SKY/WX    TMP DP  RH WIND       PRES   REMARKS
SPRINGFIELD    CLEAR     67  63  87 S5        30.08R
JOPLIN         CLEAR     68  66  93 SW3       30.07S

$$
MOZ032>034-039>042-045>050-055>058-069>072-010500-
...CENTRAL MISSOURI...

CITY           SKY/WX    TMP DP  RH WIND       PRES   REMARKS
COLUMBIA       CLEAR     68  58  70 NE7       30.06S
JEFFERSON CITY CLEAR     70  58  65 CALM      30.04S
ROLLA          MOCLDY    70  61  73 S7        30.06R
SEDALIA        PTCLDY    68  59  73 CALM      30.07R
OSAGE BEACH      N/A     66  57  72 CALM      30.06R

$$
MOZ051-052-059>065-010500-
...EAST CENTRAL MISSOURI...

CITY           SKY/WX    TMP DP  RH WIND       PRES   REMARKS
ST LOUIS INTL  PTCLDY    74  61  63 SE6       30.06F
SPIRIT OF STL  CLEAR     67  62  84 CALM      30.05S
ST CHARLES     CLEAR     68  64  87 CALM      30.05S

$$
MOZ072>076-082>087-097>100-106>115-010500-
...SOUTH CENTRAL AND SOUTHEAST MISSOURI...

CITY           SKY/WX    TMP DP  RH WIND       PRES   REMARKS
CAPE GIRARDEAU CLEAR     64  62  93 S5        30.08R
FARMINGTON     CLEAR     66  63  88 S5        30.10S
POPLAR BLUFF   PTCLDY    64  61  90 CALM      30.07R FOG
WEST PLAINS    CLEAR     63  61  93 CALM      30.11R

$$


USA.gov is the U.S. government's official web portal to all federal, state and local government web resources and services.